| time (UTC) | temp C | wind direction | speed KPH | gust KPH | rain 1hr cm | rain 24hr cm | rain mn cm | humidity % | barometer mb |
| 20260510064821 | 19 | 289 | 4.8 | 12.9 | 0.00 | 0.00 | 0.00 | 76 | 1016.0 |
| 20260510064547 | 18 | 276 | 6.4 | 12.9 | 0.00 | 0.00 | 0.00 | 78 | 1015.9 |
| 20260510063809 | 18 | 277 | 4.8 | 9.7 | 0.00 | 0.00 | 0.00 | 78 | 1016.0 |
| 20260510063304 | 18 | 240 | 4.8 | 9.7 | 0.00 | 0.00 | 0.00 | 78 | 1016.0 |
| 20260510062758 | 18 | 298 | 6.4 | 9.7 | 0.00 | 0.00 | 0.00 | 80 | 1016.1 |
| 20260510062514 | 18 | 272 | 6.4 | 12.9 | 0.00 | 0.00 | 0.00 | 80 | 1016.1 |
| 20260510061746 | 18 | 285 | 6.4 | 12.9 | 0.00 | 0.00 | 0.00 | 80 | 1016.0 |
| 20260510061240 | 18 | 285 | 6.4 | 12.9 | 0.00 | 0.00 | 0.00 | 80 | 1016.1 |
| 20260510060734 | 17 | 268 | 6.4 | 12.9 | 0.00 | 0.00 | 0.00 | 81 | 1016.0 |
| 20260510060228 | 17 | 281 | 6.4 | 12.9 | 0.00 | 0.00 | 0.00 | 82 | 1015.9 |
| 20260510055721 | 17 | 275 | 6.4 | 12.9 | 0.00 | 0.00 | 0.00 | 81 | 1016.0 |
| 20260510055216 | 17 | 267 | 6.4 | 12.9 | 0.00 | 0.00 | 0.00 | 82 | 1016.0 |
| 20260510054711 | 17 | 264 | 4.8 | 11.3 | 0.00 | 0.00 | 0.00 | 84 | 1016.1 |
| 20260510054210 | 17 | 294 | 3.2 | 8.0 | 0.00 | 0.00 | 0.00 | 85 | 1016.1 |
| 20260510053710 | 17 | 274 | 3.2 | 8.0 | 0.00 | 0.00 | 0.00 | 87 | 1016.0 |
| 20260510053210 | 16 | 265 | 4.8 | 9.7 | 0.00 | 0.00 | 0.00 | 86 | 1015.9 |
| 20260510052710 | 16 | 264 | 3.2 | 9.7 | 0.00 | 0.00 | 0.00 | 87 | 1015.9 |
| 20260510052210 | 16 | 274 | 3.2 | 4.8 | 0.00 | 0.00 | 0.00 | 88 | 1015.8 |
| 20260510051708 | 16 | 274 | 3.2 | 6.4 | 0.00 | 0.00 | 0.00 | 88 | 1015.7 |
| 20260510051206 | 16 | 269 | 3.2 | 6.4 | 0.00 | 0.03 | 0.00 | 89 | 1015.7 |
| 20260510050705 | 16 | 269 | 3.2 | 6.4 | 0.00 | 0.03 | 0.00 | 89 | 1015.7 |
| 20260510050206 | 16 | 276 | 3.2 | 6.4 | 0.00 | 0.03 | 0.00 | 89 | 1015.8 |
| 20260510045929 | 16 | 306 | 3.2 | 6.4 | 0.00 | 0.03 | 0.00 | 89 | 1015.8 |
| 20260510045202 | 16 | 306 | 3.2 | 6.4 | 0.00 | 0.03 | 0.00 | 89 | 1015.7 |
| 20260510044702 | 16 | 299 | 1.6 | 6.4 | 0.00 | 0.03 | 0.00 | 91 | 1015.7 |
| 20260510044202 | 16 | 309 | 3.2 | 8.0 | 0.00 | 0.03 | 0.00 | 91 | 1015.8 |
| 20260510043659 | 16 | 321 | 4.8 | 8.0 | 0.00 | 0.03 | 0.00 | 91 | 1015.8 |
| 20260510043200 | 16 | 311 | 4.8 | 8.0 | 0.00 | 0.03 | 0.00 | 90 | 1015.8 |
| 20260510042917 | 16 | 316 | 3.2 | 8.0 | 0.00 | 0.03 | 0.00 | 90 | 1015.8 |
| 20260510042159 | 16 | 270 | 4.8 | 9.7 | 0.00 | 0.03 | 0.00 | 91 | 1015.8 |
| 20260510041700 | 16 | 274 | 4.8 | 9.7 | 0.00 | 0.03 | 0.00 | 90 | 1015.8 |
| 20260510041200 | 16 | 274 | 3.2 | 11.3 | 0.00 | 0.03 | 0.00 | 90 | 1015.8 |
| 20260510040658 | 16 | 275 | 3.2 | 11.3 | 0.00 | 0.03 | 0.00 | 90 | 1015.8 |
| 20260510040421 | 16 | 307 | 4.8 | 8.0 | 0.00 | 0.03 | 0.00 | 91 | 1015.7 |
| 20260510035656 | 16 | 300 | 4.8 | 8.0 | 0.00 | 0.03 | 0.00 | 91 | 1015.6 |
| 20260510035421 | 16 | 249 | 3.2 | 6.4 | 0.00 | 0.03 | 0.00 | 91 | 1015.5 |
| 20260510034655 | 16 | 269 | 3.2 | 6.4 | 0.00 | 0.03 | 0.00 | 91 | 1015.4 |
| 20260510034156 | 16 | 260 | 3.2 | 6.4 | 0.00 | 0.03 | 0.00 | 91 | 1015.3 |
| 20260510033656 | 16 | 250 | 3.2 | 6.4 | 0.00 | 0.03 | 0.00 | 91 | 1015.4 |
| 20260510033156 | 16 | 255 | 4.8 | 6.4 | 0.00 | 0.03 | 0.00 | 90 | 1015.2 |
| 20260510032654 | 16 | 255 | 4.8 | 8.0 | 0.00 | 0.03 | 0.00 | 90 | 1015.2 |
| 20260510032154 | 16 | 243 | 3.2 | 8.0 | 0.00 | 0.03 | 0.00 | 89 | 1015.2 |
| 20260510031654 | 16 | 256 | 3.2 | 4.8 | 0.00 | 0.03 | 0.00 | 89 | 1015.3 |
| 20260510031154 | 16 | 256 | 1.6 | 4.8 | 0.00 | 0.03 | 0.00 | 89 | 1015.2 |
| 20260510030654 | 16 | 256 | 1.6 | 3.2 | 0.00 | 0.03 | 0.00 | 90 | 1015.2 |
| 20260510030153 | 16 | 256 | 1.6 | 4.8 | 0.00 | 0.03 | 0.00 | 90 | 1015.2 |
| 20260510025651 | 16 | 256 | 1.6 | 4.8 | 0.00 | 0.03 | 0.00 | 91 | 1015.2 |
| 20260510025152 | 16 | 256 | 0.0 | 3.2 | 0.00 | 0.03 | 0.00 | 92 | 1015.2 |
| 20260510024652 | 16 | 256 | 0.0 | 1.6 | 0.00 | 0.03 | 0.00 | 92 | 1015.1 |
| 20260510024149 | 16 | 256 | 0.0 | 1.6 | 0.00 | 0.03 | 0.00 | 92 | 1015.1 |
| 20260510023649 | 16 | 256 | 0.0 | 1.6 | 0.00 | 0.03 | 0.00 | 93 | 1015.0 |
| 20260510023149 | 16 | 256 | 0.0 | 1.6 | 0.00 | 0.03 | 0.00 | 92 | 1015.0 |
| 20260510022650 | 16 | 256 | 0.0 | 1.6 | 0.00 | 0.03 | 0.00 | 92 | 1015.1 |
| 20260510022150 | 16 | 256 | 0.0 | 1.6 | 0.00 | 0.03 | 0.00 | 93 | 1015.1 |
| 20260510021650 | 16 | 256 | 0.0 | 1.6 | 0.00 | 0.03 | 0.00 | 93 | 1015.1 |
| 20260510021149 | 16 | 256 | 0.0 | 3.2 | 0.00 | 0.03 | 0.00 | 93 | 1015.0 |
| 20260510020650 | 16 | 256 | 1.6 | 4.8 | 0.00 | 0.03 | 0.00 | 92 | 1015.0 |
| 20260510020412 | 16 | 256 | 3.2 | 6.4 | 0.00 | 0.03 | 0.00 | 92 | 1015.1 |
| 20260510015903 | 16 | 256 | 4.8 | 8.0 | 0.00 | 0.03 | 0.00 | 92 | 1015.2 |
| 20260510015146 | 16 | 260 | 4.8 | 8.0 | 0.00 | 0.03 | 0.00 | 92 | 1015.1 |
| 20260510014908 | 16 | 258 | 3.2 | 8.0 | 0.00 | 0.03 | 0.00 | 91 | 1015.1 |
| 20260510014145 | 16 | 117 | 1.6 | 3.2 | 0.00 | 0.03 | 0.00 | 91 | 1015.1 |
| 20260510013908 | 16 | 117 | 0.0 | 3.2 | 0.00 | 0.03 | 0.00 | 91 | 1015.0 |
| 20260510013411 | 16 | 117 | 0.0 | 1.6 | 0.00 | 0.03 | 0.00 | 91 | 1015.1 |
| 20260510012646 | 16 | 117 | 0.0 | 0.0 | 0.00 | 0.03 | 0.00 | 90 | 1015.1 |
| 20260510012145 | 16 | 117 | 0.0 | 1.6 | 0.00 | 0.03 | 0.00 | 90 | 1015.1 |
| 20260510011638 | 16 | 117 | 0.0 | 1.6 | 0.00 | 0.03 | 0.00 | 90 | 1015.2 |
| 20260510011133 | 16 | 117 | 0.0 | 1.6 | 0.00 | 0.03 | 0.00 | 91 | 1015.2 |
| 20260510010627 | 16 | 117 | 0.0 | 0.0 | 0.00 | 0.03 | 0.00 | 91 | 1015.3 |
| 20260510010121 | 16 | 117 | 0.0 | 0.0 | 0.00 | 0.03 | 0.00 | 91 | 1015.3 |
| 20260510005621 | 16 | 117 | 0.0 | 0.0 | 0.00 | 0.03 | 0.00 | 90 | 1015.3 |
| 20260510005331 | 16 | 117 | 0.0 | 0.0 | 0.00 | 0.03 | 0.00 | 90 | 1015.3 |
| 20260510004603 | 16 | 117 | 0.0 | 1.6 | 0.00 | 0.03 | 0.00 | 90 | 1015.4 |
| 20260510004057 | 16 | 117 | 0.0 | 1.6 | 0.00 | 0.03 | 0.00 | 90 | 1015.4 |
| 20260510003550 | 16 | 117 | 0.0 | 1.6 | 0.00 | 0.03 | 0.00 | 90 | 1015.4 |
| 20260510003045 | 16 | 117 | 0.0 | 1.6 | 0.00 | 0.03 | 0.00 | 90 | 1015.4 |
| 20260510002539 | 16 | 117 | 0.0 | 1.6 | 0.00 | 0.03 | 0.00 | 90 | 1015.4 |
| 20260510002033 | 16 | 117 | 0.0 | 1.6 | 0.00 | 0.03 | 0.00 | 89 | 1015.4 |
| 20260510001527 | 16 | 117 | 0.0 | 1.6 | 0.00 | 0.03 | 0.00 | 90 | 1015.3 |
| 20260510001021 | 16 | 117 | 0.0 | 1.6 | 0.00 | 0.03 | 0.00 | 90 | 1015.4 |
| 20260510000738 | 16 | 117 | 0.0 | 1.6 | 0.00 | 0.03 | 0.00 | 90 | 1015.3 |
| 20260510000009 | 16 | 117 | 0.0 | 1.6 | 0.00 | 0.03 | 0.00 | 90 | 1015.4 |
| 20260509235726 | 16 | 117 | 0.0 | 1.6 | 0.00 | 0.03 | 0.00 | 90 | 1015.3 |
| 20260509234957 | 16 | 117 | 0.0 | 1.6 | 0.00 | 0.03 | 0.00 | 90 | 1015.3 |
| 20260509234451 | 16 | 117 | 0.0 | 1.6 | 0.00 | 0.03 | 0.00 | 90 | 1015.3 |
| 20260509233945 | 16 | 117 | 0.0 | 1.6 | 0.00 | 0.03 | 0.00 | 90 | 1015.4 |
| 20260509233439 | 16 | 117 | 0.0 | 1.6 | 0.00 | 0.03 | 0.00 | 90 | 1015.4 |
| 20260509232933 | 16 | 117 | 0.0 | 1.6 | 0.00 | 0.03 | 0.00 | 90 | 1015.4 |
| 20260509232427 | 16 | 117 | 0.0 | 1.6 | 0.00 | 0.03 | 0.00 | 90 | 1015.5 |
| 20260509231921 | 17 | 117 | 0.0 | 1.6 | 0.00 | 0.03 | 0.00 | 90 | 1015.6 |
| 20260509231415 | 17 | 117 | 0.0 | 1.6 | 0.00 | 0.03 | 0.00 | 90 | 1015.6 |
| 20260509230909 | 17 | 117 | 0.0 | 1.6 | 0.00 | 0.03 | 0.00 | 90 | 1015.7 |
| 20260509230403 | 17 | 117 | 0.0 | 1.6 | 0.00 | 0.03 | 0.00 | 90 | 1015.7 |
| 20260509225858 | 17 | 117 | 1.6 | 3.2 | 0.00 | 0.03 | 0.00 | 90 | 1015.7 |
| 20260509225351 | 17 | 117 | 1.6 | 3.2 | 0.00 | 0.03 | 0.00 | 90 | 1015.7 |
| 20260509224846 | 17 | 138 | 1.6 | 1.6 | 0.00 | 0.03 | 0.00 | 90 | 1015.7 |
| 20260509224339 | 17 | 137 | 0.0 | 1.6 | 0.00 | 0.03 | 0.00 | 90 | 1015.7 |
| 20260509223833 | 17 | 137 | 0.0 | 1.6 | 0.00 | 0.03 | 0.00 | 90 | 1015.7 |
| 20260509223326 | 17 | 137 | 0.0 | 1.6 | 0.00 | 0.03 | 0.00 | 90 | 1015.8 |
| 20260509222821 | 17 | 137 | 0.0 | 1.6 | 0.00 | 0.03 | 0.00 | 90 | 1015.8 |
| 20260509222321 | 17 | 137 | 0.0 | 1.6 | 0.00 | 0.03 | 0.00 | 90 | 1015.8 |
| 20260509221821 | 17 | 138 | 0.0 | 1.6 | 0.00 | 0.03 | 0.00 | 91 | 1015.7 |
| 20260509221321 | 17 | 138 | 0.0 | 1.6 | 0.00 | 0.03 | 0.00 | 90 | 1015.7 |
| 20260509220821 | 17 | 138 | 0.0 | 1.6 | 0.00 | 0.03 | 0.00 | 91 | 1015.7 |
| 20260509220544 | 17 | 138 | 1.6 | 1.6 | 0.00 | 0.03 | 0.00 | 91 | 1015.8 |
| 20260509215820 | 17 | 137 | 0.0 | 1.6 | 0.00 | 0.03 | 0.00 | 91 | 1015.7 |
| 20260509215319 | 17 | 137 | 0.0 | 1.6 | 0.00 | 0.03 | 0.00 | 91 | 1015.8 |
| 20260509214824 | 17 | 137 | 0.0 | 1.6 | 0.00 | 0.03 | 0.00 | 91 | 1015.9 |
| 20260509214540 | 17 | 137 | 0.0 | 1.6 | 0.00 | 0.03 | 0.00 | 90 | 1015.9 |
| 20260509213819 | 17 | 138 | 0.0 | 1.6 | 0.00 | 0.03 | 0.00 | 91 | 1015.9 |
| 20260509213317 | 17 | 137 | 0.0 | 1.6 | 0.00 | 0.03 | 0.00 | 91 | 1016.0 |
| 20260509212816 | 17 | 138 | 0.0 | 1.6 | 0.00 | 0.03 | 0.00 | 91 | 1015.9 |
| 20260509212313 | 17 | 137 | 0.0 | 1.6 | 0.00 | 0.03 | 0.00 | 91 | 1016.0 |
| 20260509211814 | 17 | 137 | 0.0 | 1.6 | 0.00 | 0.03 | 0.00 | 91 | 1015.9 |
| 20260509211536 | 17 | 137 | 0.0 | 1.6 | 0.00 | 0.03 | 0.00 | 91 | 1015.9 |
| 20260509210813 | 17 | 138 | 0.0 | 1.6 | 0.00 | 0.03 | 0.00 | 91 | 1015.9 |
| 20260509210313 | 17 | 137 | 0.0 | 3.2 | 0.00 | 0.03 | 0.00 | 91 | 1015.9 |
| 20260509205813 | 17 | 138 | 0.0 | 3.2 | 0.00 | 0.03 | 0.03 | 91 | 1015.9 |
| 20260509205307 | 17 | 138 | 0.0 | 3.2 | 0.00 | 0.03 | 0.03 | 91 | 1015.8 |
| 20260509204802 | 17 | 149 | 0.0 | 3.2 | 0.00 | 0.03 | 0.03 | 91 | 1015.7 |
| 20260509204254 | 17 | 207 | 0.0 | 3.2 | 0.00 | 0.03 | 0.03 | 91 | 1015.6 |
| 20260509203749 | 17 | 207 | 1.6 | 4.8 | 0.00 | 0.03 | 0.03 | 91 | 1015.7 |
| 20260509203243 | 17 | 259 | 1.6 | 4.8 | 0.00 | 0.03 | 0.03 | 91 | 1015.7 |
| 20260509202737 | 18 | 208 | 0.0 | 3.2 | 0.00 | 0.03 | 0.03 | 91 | 1015.6 |
| 20260509202231 | 18 | 208 | 1.6 | 4.8 | 0.00 | 0.03 | 0.03 | 91 | 1015.6 |
| 20260509201725 | 18 | 208 | 1.6 | 4.8 | 0.00 | 0.03 | 0.03 | 90 | 1015.6 |
| 20260509201218 | 18 | 205 | 1.6 | 6.4 | 0.00 | 0.03 | 0.03 | 90 | 1015.6 |
| 20260509200712 | 18 | 207 | 1.6 | 6.4 | 0.00 | 0.03 | 0.03 | 90 | 1015.6 |
| 20260509200207 | 17 | 224 | 0.0 | 1.6 | 0.00 | 0.03 | 0.03 | 90 | 1015.5 |
| 20260509195700 | 17 | 224 | 0.0 | 0.0 | 0.00 | 0.03 | 0.03 | 89 | 1015.4 |
| 20260509195155 | 18 | 224 | 0.0 | 0.0 | 0.00 | 0.03 | 0.03 | 89 | 1015.4 |
| 20260509194649 | 18 | 224 | 0.0 | 0.0 | 0.00 | 0.03 | 0.03 | 88 | 1015.3 |
| 20260509194413 | 18 | 224 | 0.0 | 0.0 | 0.00 | 0.03 | 0.03 | 88 | 1015.4 |
| 20260509193637 | 18 | 224 | 0.0 | 1.6 | 0.00 | 0.03 | 0.03 | 88 | 1015.4 |
| 20260509193131 | 18 | 224 | 0.0 | 1.6 | 0.00 | 0.03 | 0.03 | 88 | 1015.5 |
| 20260509192625 | 18 | 224 | 0.0 | 1.6 | 0.00 | 0.03 | 0.03 | 88 | 1015.4 |
| 20260509192119 | 18 | 224 | 0.0 | 1.6 | 0.00 | 0.03 | 0.03 | 88 | 1015.4 |
| 20260509191613 | 18 | 224 | 0.0 | 1.6 | 0.00 | 0.03 | 0.03 | 88 | 1015.3 |
| 20260509191107 | 18 | 224 | 0.0 | 1.6 | 0.00 | 0.03 | 0.03 | 88 | 1015.4 |
| 20260509190601 | 18 | 224 | 0.0 | 1.6 | 0.00 | 0.03 | 0.03 | 89 | 1015.3 |
| 20260509190322 | 18 | 224 | 0.0 | 1.6 | 0.00 | 0.03 | 0.03 | 88 | 1015.3 |
| 20260509185552 | 18 | 224 | 0.0 | 1.6 | 0.00 | 0.03 | 0.03 | 88 | 1015.3 |
| 20260509185043 | 18 | 224 | 0.0 | 1.6 | 0.00 | 0.03 | 0.03 | 87 | 1015.3 |
| 20260509184536 | 18 | 224 | 0.0 | 4.8 | 0.00 | 0.03 | 0.03 | 87 | 1015.2 |
| 20260509184031 | 18 | 224 | 0.0 | 4.8 | 0.00 | 0.03 | 0.03 | 87 | 1015.2 |
| 20260509183525 | 18 | 213 | 1.6 | 4.8 | 0.00 | 0.03 | 0.03 | 86 | 1015.2 |
| 20260509183506 | 18 | 213 | 1.6 | 4.8 | 0.00 | 0.03 | 0.03 | 85 | 1015.1 |
| 20260509182512 | 18 | 219 | 0.0 | 4.8 | 0.00 | 0.03 | 0.03 | 83 | 1015.1 |
| 20260509182007 | 18 | 208 | 0.0 | 3.2 | 0.00 | 0.03 | 0.03 | 81 | 1015.0 |
| 20260509181503 | 19 | 208 | 0.0 | 4.8 | 0.00 | 0.03 | 0.03 | 81 | 1014.9 |
| 20260509181441 | 19 | 208 | 0.0 | 4.8 | 0.00 | 0.03 | 0.03 | 80 | 1014.7 |
| 20260509180449 | 19 | 246 | 0.0 | 3.2 | 0.00 | 0.03 | 0.03 | 80 | 1014.7 |
| 20260509175942 | 19 | 245 | 0.0 | 1.6 | 0.00 | 0.03 | 0.03 | 79 | 1014.7 |
| 20260509175437 | 19 | 246 | 0.0 | 3.2 | 0.00 | 0.03 | 0.03 | 79 | 1014.5 |
| 20260509174930 | 19 | 245 | 1.6 | 4.8 | 0.00 | 0.03 | 0.03 | 79 | 1014.4 |
| 20260509174425 | 19 | 245 | 1.6 | 4.8 | 0.00 | 0.03 | 0.03 | 80 | 1014.3 |
| 20260509174144 | 19 | 98 | 0.0 | 1.6 | 0.00 | 0.03 | 0.03 | 80 | 1014.3 |
| 20260509173413 | 20 | 98 | 0.0 | 1.6 | 0.00 | 0.03 | 0.03 | 80 | 1014.2 |
| 20260509172906 | 20 | 98 | 0.0 | 1.6 | 0.00 | 0.03 | 0.03 | 80 | 1014.1 |
| 20260509172401 | 20 | 98 | 0.0 | 1.6 | 0.00 | 0.03 | 0.03 | 80 | 1014.1 |
| 20260509171855 | 20 | 98 | 0.0 | 1.6 | 0.00 | 0.03 | 0.03 | 80 | 1014.2 |
| 20260509171607 | 20 | 98 | 0.0 | 3.2 | 0.00 | 0.03 | 0.03 | 80 | 1014.1 |
| 20260509170843 | 20 | 98 | 0.0 | 3.2 | 0.00 | 0.03 | 0.03 | 80 | 1014.1 |
| 20260509170555 | 20 | 98 | 0.0 | 3.2 | 0.00 | 0.03 | 0.03 | 80 | 1014.1 |
| 20260509165831 | 20 | 98 | 1.6 | 4.8 | 0.00 | 0.03 | 0.03 | 79 | 1014.2 |
| 20260509165331 | 20 | 145 | 0.0 | 4.8 | 0.00 | 0.03 | 0.03 | 80 | 1014.2 |
| 20260509165053 | 20 | 147 | 1.6 | 4.8 | 0.00 | 0.03 | 0.03 | 80 | 1014.2 |
| 20260509164331 | 20 | 148 | 1.6 | 6.4 | 0.00 | 0.03 | 0.03 | 81 | 1014.1 |
| 20260509164049 | 20 | 184 | 1.6 | 6.4 | 0.00 | 0.03 | 0.03 | 81 | 1014.1 |
| 20260509163327 | 20 | 254 | 1.6 | 6.4 | 0.00 | 0.03 | 0.03 | 82 | 1014.1 |
| 20260509162827 | 20 | 162 | 1.6 | 6.4 | 0.00 | 0.03 | 0.03 | 82 | 1014.1 |
| 20260509162551 | 20 | 207 | 1.6 | 4.8 | 0.00 | 0.03 | 0.03 | 82 | 1014.1 |
| 20260509161825 | 20 | 234 | 1.6 | 4.8 | 0.00 | 0.03 | 0.03 | 83 | 1014.0 |
| 20260509161325 | 20 | 214 | 1.6 | 4.8 | 0.00 | 0.03 | 0.03 | 83 | 1014.1 |
| 20260509160824 | 20 | 144 | 1.6 | 4.8 | 0.00 | 0.03 | 0.03 | 83 | 1014.0 |
| 20260509160324 | 20 | 203 | 1.6 | 4.8 | 0.00 | 0.03 | 0.03 | 84 | 1014.1 |
| 20260509160044 | 20 | 211 | 1.6 | 6.4 | 0.00 | 0.03 | 0.03 | 84 | 1014.2 |
| 20260509155808 | 20 | 208 | 1.6 | 8.0 | 0.00 | 0.03 | 0.03 | 84 | 1014.1 |
| 20260509154823 | 20 | 191 | 1.6 | 8.0 | 0.00 | 0.03 | 0.03 | 84 | 1014.1 |
| 20260509154321 | 20 | 205 | 3.2 | 11.3 | 0.00 | 0.03 | 0.03 | 84 | 1014.1 |
| 20260509153821 | 20 | 222 | 3.2 | 11.3 | 0.00 | 0.03 | 0.03 | 84 | 1014.1 |
| 20260509153319 | 20 | 210 | 3.2 | 11.3 | 0.00 | 0.03 | 0.03 | 84 | 1014.0 |
| 20260509152819 | 20 | 214 | 4.8 | 14.5 | 0.00 | 0.03 | 0.03 | 84 | 1014.0 |
| 20260509152312 | 20 | 227 | 4.8 | 14.5 | 0.00 | 0.03 | 0.03 | 84 | 1014.0 |
| 20260509151807 | 20 | 238 | 4.8 | 12.9 | 0.00 | 0.03 | 0.03 | 84 | 1014.0 |
| 20260509151523 | 20 | 268 | 4.8 | 12.9 | 0.00 | 0.03 | 0.03 | 84 | 1013.9 |
| 20260509150805 | 20 | 207 | 3.2 | 12.9 | 0.00 | 0.03 | 0.03 | 83 | 1013.9 |
| 20260509150305 | 20 | 187 | 4.8 | 11.3 | 0.00 | 0.03 | 0.03 | 83 | 1013.9 |
| 20260509145805 | 20 | 219 | 4.8 | 11.3 | 0.00 | 0.03 | 0.03 | 83 | 1013.8 |
| 20260509145306 | 20 | 258 | 3.2 | 11.3 | 0.00 | 0.03 | 0.03 | 84 | 1013.8 |
| 20260509144804 | 20 | 213 | 4.8 | 16.1 | 0.00 | 0.03 | 0.03 | 83 | 1013.8 |
| 20260509144305 | 20 | 247 | 6.4 | 16.1 | 0.00 | 0.03 | 0.03 | 84 | 1013.8 |
| 20260509143804 | 20 | 234 | 6.4 | 14.5 | 0.00 | 0.03 | 0.03 | 83 | 1013.8 |
| 20260509143526 | 20 | 219 | 6.4 | 17.7 | 0.00 | 0.03 | 0.03 | 83 | 1013.8 |
| 20260509142805 | 20 | 236 | 8.0 | 17.7 | 0.00 | 0.03 | 0.03 | 83 | 1013.8 |
| 20260509142307 | 20 | 207 | 4.8 | 14.5 | 0.00 | 0.03 | 0.03 | 82 | 1013.8 |
| 20260509141801 | 20 | 254 | 4.8 | 12.9 | 0.00 | 0.03 | 0.03 | 82 | 1013.8 |
| 20260509141301 | 20 | 214 | 6.4 | 16.1 | 0.00 | 0.03 | 0.03 | 82 | 1013.8 |
| 20260509140801 | 20 | 215 | 6.4 | 16.1 | 0.00 | 0.03 | 0.03 | 82 | 1013.8 |
| 20260509140301 | 20 | 191 | 6.4 | 16.1 | 0.00 | 0.03 | 0.03 | 81 | 1013.9 |
| 20260509135801 | 20 | 237 | 4.8 | 12.9 | 0.00 | 0.03 | 0.03 | 80 | 1013.8 |
| 20260509135301 | 20 | 245 | 3.2 | 14.5 | 0.00 | 0.03 | 0.03 | 79 | 1013.8 |
| 20260509134800 | 20 | 287 | 4.8 | 14.5 | 0.00 | 0.03 | 0.03 | 79 | 1013.8 |
| 20260509134301 | 20 | 214 | 4.8 | 14.5 | 0.00 | 0.03 | 0.03 | 77 | 1013.9 |
| 20260509133800 | 20 | 250 | 4.8 | 16.1 | 0.00 | 0.03 | 0.03 | 77 | 1013.9 |
| 20260509133300 | 20 | 236 | 6.4 | 16.1 | 0.00 | 0.03 | 0.03 | 76 | 1013.9 |
| 20260509132801 | 20 | 230 | 4.8 | 12.9 | 0.00 | 0.03 | 0.03 | 76 | 1013.9 |
| 20260509132520 | 20 | 235 | 6.4 | 16.1 | 0.00 | 0.03 | 0.03 | 75 | 1013.9 |
| 20260509131801 | 20 | 270 | 6.4 | 16.1 | 0.00 | 0.03 | 0.03 | 74 | 1013.9 |
| 20260509131516 | 20 | 237 | 4.8 | 14.5 | 0.00 | 0.03 | 0.03 | 73 | 1013.9 |
| 20260509130801 | 20 | 208 | 6.4 | 16.1 | 0.00 | 0.03 | 0.03 | 74 | 1013.8 |
| 20260509130300 | 20 | 238 | 6.4 | 16.1 | 0.00 | 0.03 | 0.03 | 73 | 1013.9 |
| 20260509125801 | 21 | 242 | 6.4 | 16.1 | 0.00 | 0.03 | 0.03 | 71 | 1014.0 |
| 20260509125752 | 21 | 260 | 4.8 | 14.5 | 0.00 | 0.03 | 0.03 | 71 | 1014.0 |
| 20260509124754 | 21 | 252 | 3.2 | 11.3 | 0.00 | 0.03 | 0.03 | 72 | 1013.9 |
| 20260509124248 | 21 | 223 | 4.8 | 14.5 | 0.00 | 0.03 | 0.03 | 72 | 1013.9 |
| 20260509123741 | 21 | 201 | 6.4 | 14.5 | 0.00 | 0.03 | 0.03 | 72 | 1014.0 |
| 20260509123236 | 21 | 221 | 6.4 | 14.5 | 0.00 | 0.03 | 0.03 | 71 | 1014.1 |
| 20260509122730 | 21 | 219 | 4.8 | 12.9 | 0.00 | 0.03 | 0.03 | 70 | 1014.1 |
| 20260509122224 | 21 | 213 | 4.8 | 12.9 | 0.00 | 0.03 | 0.03 | 71 | 1014.1 |
| 20260509121717 | 21 | 227 | 3.2 | 9.7 | 0.00 | 0.03 | 0.03 | 71 | 1014.1 |
| 20260509121211 | 21 | 266 | 4.8 | 9.7 | 0.00 | 0.03 | 0.03 | 72 | 1014.0 |
| 20260509120704 | 21 | 207 | 4.8 | 11.3 | 0.00 | 0.03 | 0.03 | 73 | 1014.0 |
| 20260509120158 | 21 | 258 | 4.8 | 11.3 | 0.00 | 0.03 | 0.03 | 71 | 1014.0 |
| 20260509115651 | 21 | 229 | 3.2 | 11.3 | 0.00 | 0.03 | 0.03 | 70 | 1014.0 |
| 20260509115412 | 22 | 267 | 3.2 | 6.4 | 0.00 | 0.03 | 0.03 | 70 | 1014.0 |
| 20260509114640 | 21 | 254 | 3.2 | 9.7 | 0.00 | 0.03 | 0.03 | 73 | 1014.1 |
| 20260509114134 | 21 | 257 | 4.8 | 11.3 | 0.00 | 0.03 | 0.03 | 71 | 1014.1 |
| 20260509113847 | 20 | 233 | 6.4 | 11.3 | 0.00 | 0.05 | 0.03 | 73 | 1014.1 |
| 20260509113121 | 20 | 259 | 6.4 | 11.3 | 0.00 | 0.05 | 0.03 | 72 | 1014.2 |
| 20260509112616 | 20 | 246 | 4.8 | 9.7 | 0.00 | 0.10 | 0.03 | 73 | 1014.1 |
| 20260509112110 | 20 | 245 | 6.4 | 9.7 | 0.00 | 0.13 | 0.03 | 73 | 1014.1 |
| 20260509111604 | 20 | 229 | 4.8 | 8.0 | 0.00 | 0.15 | 0.03 | 73 | 1014.2 |
| 20260509111059 | 20 | 252 | 4.8 | 11.3 | 0.00 | 0.15 | 0.03 | 74 | 1014.2 |
| 20260509110551 | 20 | 275 | 6.4 | 12.9 | 0.00 | 0.15 | 0.03 | 74 | 1014.2 |
| 20260509110311 | 20 | 254 | 6.4 | 12.9 | 0.00 | 0.20 | 0.03 | 74 | 1014.3 |
| 20260509105805 | 20 | 297 | 6.4 | 11.3 | 0.00 | 0.23 | 0.03 | 74 | 1014.4 |
| 20260509105033 | 19 | 253 | 6.4 | 11.3 | 0.00 | 0.25 | 0.03 | 73 | 1014.4 |
| 20260509104750 | 20 | 245 | 6.4 | 11.3 | 0.00 | 0.28 | 0.03 | 72 | 1014.4 |
| 20260509104022 | 20 | 280 | 8.0 | 11.3 | 0.00 | 0.30 | 0.03 | 73 | 1014.4 |
| 20260509103520 | 20 | 275 | 6.4 | 11.3 | 0.00 | 0.33 | 0.03 | 72 | 1014.5 |
| 20260509103009 | 20 | 292 | 4.8 | 9.7 | 0.00 | 0.33 | 0.03 | 70 | 1014.6 |
| 20260509102504 | 20 | 284 | 3.2 | 8.0 | 0.00 | 0.33 | 0.03 | 68 | 1014.6 |
| 20260509101958 | 20 | 219 | 3.2 | 6.4 | 0.00 | 0.33 | 0.03 | 68 | 1014.6 |
| 20260509101709 | 20 | 255 | 3.2 | 8.0 | 0.00 | 0.36 | 0.03 | 69 | 1014.7 |
| 20260509100945 | 20 | 211 | 3.2 | 8.0 | 0.00 | 0.36 | 0.03 | 70 | 1014.8 |
| 20260509100440 | 19 | 221 | 4.8 | 8.0 | 0.00 | 0.36 | 0.03 | 71 | 1014.9 |
| 20260509100152 | 19 | 259 | 4.8 | 11.3 | 0.00 | 0.38 | 0.03 | 70 | 1014.9 |
| 20260509095429 | 19 | 262 | 4.8 | 11.3 | 0.00 | 0.38 | 0.03 | 69 | 1014.9 |
| 20260509094922 | 19 | 271 | 4.8 | 9.7 | 0.00 | 0.41 | 0.03 | 69 | 1015.0 |
| 20260509094416 | 19 | 215 | 4.8 | 9.7 | 0.00 | 0.41 | 0.03 | 73 | 1015.0 |
| 20260509093910 | 18 | 259 | 4.8 | 9.7 | 0.00 | 0.43 | 0.03 | 72 | 1015.1 |
| 20260509093404 | 18 | 278 | 4.8 | 9.7 | 0.00 | 0.43 | 0.03 | 74 | 1015.2 |
| 20260509092858 | 18 | 305 | 4.8 | 9.7 | 0.00 | 0.43 | 0.03 | 73 | 1015.1 |
| 20260509092618 | 18 | 323 | 4.8 | 9.7 | 0.00 | 0.43 | 0.03 | 75 | 1015.1 |
| 20260509091845 | 18 | 252 | 4.8 | 11.3 | 0.00 | 0.43 | 0.03 | 78 | 1015.1 |
| 20260509091340 | 18 | 234 | 4.8 | 11.3 | 0.00 | 0.43 | 0.03 | 78 | 1015.2 |
| 20260509091051 | 18 | 246 | 4.8 | 11.3 | 0.00 | 0.43 | 0.03 | 76 | 1015.2 |
| 20260509090328 | 18 | 302 | 4.8 | 11.3 | 0.00 | 0.43 | 0.03 | 77 | 1015.2 |
| 20260509085822 | 18 | 259 | 4.8 | 8.0 | 0.00 | 0.43 | 0.03 | 80 | 1015.2 |
| 20260509085315 | 18 | 280 | 4.8 | 8.0 | 0.00 | 0.43 | 0.03 | 79 | 1015.3 |
| 20260509084810 | 18 | 277 | 6.4 | 11.3 | 0.00 | 0.43 | 0.03 | 82 | 1015.3 |
| 20260509084304 | 17 | 295 | 6.4 | 11.3 | 0.00 | 0.43 | 0.03 | 80 | 1015.3 |
| 20260509084028 | 18 | 298 | 4.8 | 8.0 | 0.00 | 0.43 | 0.03 | 81 | 1015.3 |
| 20260509083251 | 18 | 271 | 4.8 | 8.0 | 0.00 | 0.43 | 0.03 | 83 | 1015.4 |
| 20260509082746 | 17 | 282 | 3.2 | 8.0 | 0.00 | 0.43 | 0.03 | 85 | 1015.4 |
| 20260509082240 | 17 | 265 | 3.2 | 6.4 | 0.00 | 0.43 | 0.03 | 87 | 1015.4 |
| 20260509081733 | 17 | 323 | 3.2 | 6.4 | 0.00 | 0.43 | 0.03 | 86 | 1015.4 |
| 20260509081228 | 17 | 284 | 3.2 | 6.4 | 0.00 | 0.43 | 0.03 | 87 | 1015.4 |
| 20260509080722 | 17 | 309 | 3.2 | 8.0 | 0.00 | 0.43 | 0.03 | 87 | 1015.5 |
| 20260509080216 | 17 | 297 | 3.2 | 8.0 | 0.00 | 0.43 | 0.03 | 88 | 1015.5 |
| 20260509075709 | 17 | 279 | 4.8 | 8.0 | 0.00 | 0.43 | 0.03 | 88 | 1015.6 |
| 20260509075425 | 17 | 281 | 4.8 | 8.0 | 0.00 | 0.43 | 0.03 | 88 | 1015.5 |
| 20260509074657 | 17 | 324 | 4.8 | 8.0 | 0.00 | 0.43 | 0.03 | 89 | 1015.5 |
| 20260509074411 | 16 | 299 | 1.6 | 8.0 | 0.00 | 0.43 | 0.03 | 89 | 1015.5 |
| 20260509073645 | 16 | 271 | 1.6 | 4.8 | 0.00 | 0.43 | 0.03 | 91 | 1015.5 |
| 20260509073140 | 16 | 35 | 3.2 | 4.8 | 0.00 | 0.43 | 0.03 | 91 | 1015.6 |
| 20260509072634 | 16 | 23 | 3.2 | 8.0 | 0.00 | 0.43 | 0.03 | 92 | 1015.5 |
| 20260509072128 | 16 | 278 | 4.8 | 8.0 | 0.00 | 0.43 | 0.03 | 91 | 1015.6 |
| 20260509071622 | 15 | 307 | 3.2 | 8.0 | 0.00 | 0.43 | 0.03 | 92 | 1015.7 |
| 20260509071116 | 16 | 307 | 3.2 | 8.0 | 0.00 | 0.43 | 0.03 | 92 | 1015.6 |
| 20260509070611 | 15 | 283 | 3.2 | 8.0 | 0.00 | 0.43 | 0.03 | 92 | 1015.7 |
| 20260509070326 | 15 | 277 | 4.8 | 8.0 | 0.00 | 0.43 | 0.03 | 93 | 1015.7 |
| 20260509065558 | 15 | 257 | 4.8 | 8.0 | 0.00 | 0.43 | 0.03 | 92 | 1015.8 |